Miscellaneous Local Product
Issued by NWS Hastings, NE

Home | Current Version | Previous Version | Graphics & Text | Print | Product List | Glossary On
Versions: 1 2 3 4 5 6 7 8 9 10 11 12 13 14 15 16 17 18 19 20 21 22 23 24 25 26 27 28 29 30 31 32 33 34 35 36 37 38 39 40 41 42 43 44 45 46 47 48 49 50
000
AXUS43 KGID 191702
MISGRI

GID CWA HOURLY WEATHER ROUNDUP
NATIONAL WEATHER SERVICE HASTINGS NE
1200 PM CDT THU APR 19 2018

NOTE: "FAIR" INDICATES FEW OR NO CLOUDS BELOW 12,000 FEET WITH NO
SIGNIFICANT WEATHER AND/OR OBSTRUCTIONS TO VISIBILITY.

...SOUTH CENTRAL NEBRASKA...

CITY           SKY/WX    TMP DP  RH WIND       PRES   REMARKS
GRAND ISLAND   SUNNY     46  29  51 E8        30.47F
KEARNEY        SUNNY     45  27  49 CALM      30.48R
HASTINGS       SUNNY     47  28  47 NE7       30.47S
ORD            SUNNY     46  24  42 E7        30.46S
YORK             N/A     46  32  57 N6        30.48S
AURORA         SUNNY     46  30  53 NE3       30.47F
LEXINGTON      SUNNY     47  31  53 SE5       30.46R
HOLDREGE       SUNNY     45  29  54 E3        30.46S
HEBRON         SUNNY     49  28  44 CALM      30.48R

...NEBRASKA PANHANDLE...

CITY           SKY/WX    TMP DP  RH WIND       PRES   REMARKS
CHADRON        PTSUNNY   53  32  44 S15       30.30F
ALLIANCE       PTSUNNY   51  33  50 SE22G29   30.31F
SCOTTSBLUFF    CLOUDY    53  30  41 SE23G30   30.28F
SIDNEY         MOSUNNY   52  30  43 S21G30    30.31F

...WESTERN AND NORTH CENTRAL NEBRASKA...

CITY           SKY/WX    TMP DP  RH WIND       PRES   REMARKS
VALENTINE      SUNNY     48  29  47 SE10G17   30.41F
AINSWORTH      SUNNY     44  32  63 SE6       30.43F
ONEILL         SUNNY     47  20  34 CALM      30.48S
BROKEN BOW     SUNNY     47  31  53 MISG      30.44S
IMPERIAL       SUNNY     53  32  44 E14G22    30.38F
NORTH PLATTE   SUNNY     49  30  48 SE5       30.42F
MCCOOK         SUNNY     50  29  44 SE9       30.43F

...EASTERN NEBRASKA...

CITY           SKY/WX    TMP DP  RH WIND       PRES   REMARKS
NORFOLK        SUNNY     47  23  38 N6        30.46F
SO SIOUX CITY  SUNNY     45  28  51 E7        30.50R
TEKAMAH        SUNNY     45  31  58 CALM      30.49R
COLUMBUS       SUNNY     49  24  37 NE9       30.49S
ALBION         SUNNY     48  23  37 E5        30.47F
OMAHA EPPLEY   MOSUNNY   50  29  44 NE6       30.48S
OFFUTT AFB     SUNNY     49  28  45 N5        30.47
MILLARD        SUNNY     49  28  45 N7        30.48S
LINCOLN        SUNNY     50  28  42 W3        30.50R
NEBRASKA CITY  SUNNY     48  30  50 N5        30.48R
BEATRICE       SUNNY     51  31  48 NE7       30.48S
FALLS CITY     SUNNY     52  29  41 NE10      30.47S

...NORTHERN KANSAS...

CITY           SKY/WX    TMP DP  RH WIND       PRES   REMARKS
GOODLAND       SUNNY     54  29  38 S20       30.37F
HILL CITY      SUNNY     50  30  46 VRB7      30.45F
NORTON         SUNNY     52  28  40 E7        30.44F
PHILLIPSBURG   SUNNY     50  27  40 E8        30.48S
SMITH CENTER   SUNNY     48  25  40 S5        30.49R
BELOIT         SUNNY     37  19  48 CALM      30.50R
HAYS           SUNNY     49  30  48 E6        30.46F
RUSSELL        SUNNY     50  28  42 NE10      30.46S
CONCORDIA      SUNNY     48  27  44 E5        30.48R
SALINA         SUNNY     51  30  44 NE9       30.49R
TOPEKA         MOSUNNY   51  31  46 N7        30.48S



USA.gov is the U.S. government's official web portal to all federal, state and local government web resources and services.